Regional Weather Roundup
Issued by NWS Albany, NY

Home | Current Version | Previous Version | Text Only | Print | Product List | Glossary On
Versions: 1 2 3 4 5 6 7 8 9 10 11 12 13 14 15 16 17 18 19 20 21 22 23 24 25 26 27 28 29 30 31 32 33 34 35 36 37 38 39 40 41 42 43 44 45 46 47 48 49 50
000
ASUS41 KALY 072110
RWRALY

NEW YORK STATE HOURLY WEATHER ROUNDUP
NATIONAL WEATHER SERVICE ALBANY NY
500 PM EDT TUE JUL 07 2015

NOTE: "FAIR" INDICATES FEW OR NO CLOUDS BELOW 12,000 FEET WITH NO
SIGNIFICANT WEATHER AND/OR NO OBSTRUCTIONS TO VISIBILITY.

NYZ032-033-038>043-046>054-057>066-NYZ062>081-072200-
EAST


CITY           SKY/WX    TMP DP  RH WIND       PRES   REMARKS
ALBANY         PTSUNNY   81  70  69 S9        29.91F
GLENS FALLS    MOSUNNY   78  72  81 S7        29.91R
POUGHKEEPSIE   PTSUNNY   83  71  67 S7        29.92S THUNDER
NEWBURGH       MOSUNNY   81  73  78 W16       29.95S
MONTGOMERY     CLOUDY    77  71  82 W5        29.94F
WHITE PLAINS   MOSUNNY   83  72  69 S13       29.96F
ISLIP          CLOUDY    77  72  84 S14       29.96F
NEW YORK CITY  MOSUNNY   85  70  60 S13       29.94F
CENTRAL PARK   MOSUNNY   82  71  69 S7        29.97F
$$

NYZ005>009-017-018-044>046-055-056-072200-
CENTRAL


CITY           SKY/WX    TMP DP  RH WIND       PRES   REMARKS
FULTON         SUNNY     87  65  47 SW10G17   29.84F
SYRACUSE       MOSUNNY   88  65  46 SW16G22   29.85S HX  90
ROME           MOSUNNY   84  70  62 S12       29.88S
ELMIRA         SUNNY     86  66  51 SW12      29.89F
BINGHAMTON     SUNNY     80  65  59 SW14      29.96R
MONTICELLO     MOSUNNY   79  72  78 S8        30.00S
$$

NYZ026>034-041>043-072200-
NORTH


CITY           SKY/WX    TMP DP  RH WIND       PRES   REMARKS
WATERTOWN      SUNNY     85  66  53 SW13      29.83F HAZE
FORT DRUM      NOT AVBL
MASSENA        MOSUNNY   86  68  54 SW14      29.80F
SARANAC LAKE   PTSUNNY   80  65  59 SW12      29.89F
PLATTSBURGH    PTSUNNY   83  71  67 SE16      29.83S
$$

NYZ001>004-010>016-019>021-072200-
WEST


CITY           SKY/WX    TMP DP  RH WIND       PRES   REMARKS
NIAGARA FALLS  CLOUDY    79  69  71 SW14      29.83S
BUFFALO        TSTM      73  67  81 SW18G38   29.88R
DUNKIRK        LGT RAIN  71  68  90 S5        29.87F
JAMESTOWN      CLOUDY    70  64  83 S6        29.94S
WELLSVILLE     MOSUNNY   80  63  55 SW13G21   29.97F
ROCHESTER      PTSUNNY   87  65  47 SW13G23   29.83F
PENN YAN       SUNNY     86  65  49 SW9       29.89F
$$

             KEY
       WCI = WIND CHILL INDEX
       VSB = VISIBILITY
       HX  = HEAT INDEX
$$


USA.gov is the U.S. government's official web portal to all federal, state and local government web resources and services.